Location: Poughquag
(41.6090°N, 73.6820°W)
Time: 15:38:33
(UTC-04:00)

AO-27 - Visible Passes

Search period start: 29 May 2024 00:00
Search period end: 08 June 2024 00:00
Orbit: 783 x 797 km, 98.8° (Epoch: 29 May)

Date Brightness Start Highest point End Pass type
(mag) Time Alt. Az. Time Alt. Az. Time Alt. Az.
29 May 8.5 21:50:19 10° S 21:55:19 48° W 22:00:22 10° NNW visible
30 May 7.7 21:20:33 10° SSE 21:25:45 90° SSE 21:30:59 10° NNW visible
30 May 10.3 23:05:04 10° W 23:05:53 10° W 23:06:42 10° W visible
31 May 8.1 20:51:20 10° SE 20:56:18 49° ENE 21:01:18 10° N visible
31 May 9.8 22:32:10 10° SW 22:36:00 21° W 22:39:51 10° NW visible
01 Jun 8.8 22:01:26 10° SSW 22:06:16 38° W 22:11:06 10° NNW visible
02 Jun 7.9 21:31:28 10° S 21:36:39 73° WSW 21:41:51 10° NNW visible
03 Jun 7.8 21:02:03 10° SSE 21:07:09 61° ENE 21:12:16 10° N visible
03 Jun 10.0 22:43:47 10° SW 22:47:00 16° W 22:50:13 10° NW visible
04 Jun 9.2 22:12:39 10° SSW 22:17:12 31° W 22:21:47 10° NW visible
05 Jun 8.2 21:42:27 10° S 21:47:33 58° W 21:52:40 10° NNW visible
06 Jun 7.7 21:12:50 10° SSE 21:18:01 76° ENE 21:23:12 10° N visible
06 Jun 10.1 22:55:45 10° WSW 22:58:01 13° W 23:00:17 10° WNW visible
07 Jun 9.5 22:23:59 10° SSW 22:28:10 25° W 22:32:23 10° NW visible
